This is the latest recevied weather packets stored in our database for station/object K1LBG. If no packets are shown the sender has not sent any weather packets the latest 10 day(s).
| Time | Temp. | Humidity | Pressure | Rain* | Wind** | Luminosity | Snow |
|---|---|---|---|---|---|---|---|
| 1777808789 | 7.22° C | 78% | 1006.5 hPa | 0 mm | - | - | - |
| 1777807617 | 6.11° C | 81% | 1006.7 hPa | 0 mm | - | - | - |
| 1777802487 | 6.11° C | 79% | 1006.7 hPa | 0 mm | - | - | - |
| 1777801586 | 6.11° C | 79% | 1006.8 hPa | 0 mm | - | - | - |
| 1777798594 | 6.67° C | 77% | 1007.1 hPa | 0 mm | - | - | - |
| 1777797997 | 6.67° C | 78% | 1007 hPa | 0 mm | - | - | - |
| 1777796785 | 6.67° C | 77% | 1007.3 hPa | 0 mm | - | - | - |
| 1777796182 | 6.67° C | 77% | 1007.3 hPa | 0 mm | - | - | - |
| 1777795891 | 6.67° C | 78% | 1007.1 hPa | 0 mm | - | - | - |
| 1777794691 | 6.67° C | 75% | 1007.8 hPa | 0 mm | - | - | - |
| 1777791090 | 7.22° C | 74% | 1008.3 hPa | 0 mm | - | - | - |
| 1777787191 | 8.33° C | 74% | 1009.1 hPa | 0 mm | - | - | - |
| 1777786915 | 8.33° C | 73% | 1009.2 hPa | 0 mm | - | - | - |
| 1777785982 | 8.33° C | 74% | 1009.3 hPa | 0 mm | - | - | - |
| 1777785685 | 8.33° C | 73% | 1009.3 hPa | 0 mm | - | - | - |
| 1777784498 | 8.33° C | 78% | 1009.4 hPa | 0 mm | - | - | - |
| 1777783912 | 8.33° C | 80% | 1009.6 hPa | 0 mm | - | - | - |
| 1777780883 | 8.89° C | 93% | 1010.1 hPa | 0 mm | - | - | - |
| 1777778783 | 8.89° C | 92% | 1010.1 hPa | 0 mm | - | - | - |
| 1777777589 | 8.89° C | 92% | 1010.2 hPa | 0 mm | - | - | - |
| 1777776385 | 8.89° C | 92% | 1010.2 hPa | 0 mm | - | - | - |
| 1777775500 | 9.44° C | 91% | 1010.2 hPa | 0 mm | - | - | - |
| 1777774600 | 9.44° C | 91% | 1010.1 hPa | 0 mm | - | - | - |
| 1777773083 | 9.44° C | 91% | 1010.4 hPa | 0 mm | - | - | - |
| 1777772790 | 9.44° C | 91% | 1010.4 hPa | 0 mm | - | - | - |
* Rain latest hour (hover to see other rain measurements)
** Current wind speed in m/s (hover to see current wind gust speed)